x

Yucatan Basin - 120 Nm Ese Of Cozumel, Mx (42056) Wave Buoy

2:50 - Sat 22nd Nov 2014 All times are CST. -6 hours from GMT.

  • Sig Wave height 3.0ft
  • Swell Direction
  • Peak Period 8s
  • Average Period 4s
  • Wind
    13mph, 16mph gusts
  • Sea Temp 83°f
  • Aire Temp 82°f
  • Sea Pressure 1012.9mb
  •  Yucatan Basin - 120 Nm Ese Of Cozumel, Mx
  •  Yucatan Basin - 120 Nm Ese Of Cozumel, Mx

More Historic Weather Station data

Upgrade to MSW Pro to gain access to the past 30 days of data for over 8000 Wavebouys and Weather Stations around the globe.

Join Pro

Comparision Forecast

View Surf forecast
   
sáb 11/22 2:50 3ft 8s 4s 13 16 mph 1012.9mb 83f 82f
1:50 3ft 8s 5s 9 11 mph 1013.4mb 83f 83f
12:50 2.5ft 7s 4s 11 13 mph 1013.9mb 83f 82f
11:50 3ft 8s 5s 13
mph
1015mb 83f 83f
10:50 3ft 8s 5s 13 18 mph 1015.8mb 83f 82f
9:50 2.5ft 8s 4s 13 16 mph 1016.5mb 83f 82f
8:50 2.5ft 8s 5s 16 18 mph 1016.3mb 83f 82f
7:50 2.5ft 8s 5s 11 16 mph 1016mb 83f 82f
6:50 2.5ft 7s 5s 11 16 mph 1015.7mb 83f 82f
5:50 2.5ft 8s 5s 11 13 mph 1015.5mb 83f 82f
4:50 2.5ft 7s 5s 11 13 mph 1015.2mb 83f 81f
3:50 2.5ft 8s 5s 13 16 mph 1014.8mb 83f 82f
2:50 2.5ft 8s 5s 11 13 mph 1014.8mb 83f 81f
1:50 2.5ft 8s 5s 11 13 mph 1014.9mb 83f 81f
12:50 2.5ft 7s 5s 11 13 mph 1015.2mb 83f 81f
vie 11/21 11:50 2.5ft 8s 5s 11 13 mph 1015.6mb 83f 81f
10:50 2.5ft 8s 5s 11
mph
1016.2mb 83f 82f
9:50 2.5ft 8s 5s 11 13 mph 1016.4mb 83f 82f
8:50 2.5ft 8s 5s 11 13 mph 1016.1mb 83f 82f
7:50 3ft 8s 5s 9 11 mph 1015.9mb 83f 82f
6:50 3ft 8s 5s 13 16 mph 1015.5mb 83f 81f
5:50 3ft 8s 5s 11 13 mph 1015mb 83f 81f
4:50 3ft 8s 5s 13 16 mph 1014.6mb 83f 81f
3:50 3ft 8s 5s 11 13 mph 1014.1mb 83f 82f
2:50 3ft 8s 5s 11 13 mph 1014.2mb 83f 82f
1:50 3.5ft 8s 5s 11 13 mph 1014.3mb 83f 82f
12:50 3.5ft 7s 5s 11 13 mph 1015mb 83f 82f
11:50 3.5ft 8s 5s 11 13 mph 1015.8mb 83f 82f
10:50 3.5ft 5s 5s 11 13 mph 1016.6mb 83f 82f
9:50 3.5ft 6s 5s 11 13 mph 1016.9mb 83f 82f
8:50 3.5ft 6s 5s 13 16 mph 1017mb 83f 82f
7:50 4ft 6s 5s 11 13 mph 1016.2mb 83f 82f
6:50 3.5ft 6s 5s 11 13 mph 1015.6mb 83f 81f
5:50 3.5ft 6s 5s 11 13 mph 1015.1mb 83f 81f
4:50 4ft 6s 5s 11 13 mph 1014.5mb 83f 81f
3:50 4ft 6s 5s 13 16 mph 1014.4mb 83f 81f
2:50 4ft 6s 5s 11
mph
1014.2mb 83f 81f
1:50 4ft 6s 5s 11 13 mph 1014.4mb 83f 81f
12:50 4.5ft 6s 5s 11 13 mph 1014.6mb 83f 81f
jue 11/20 11:50 4.5ft 6s 5s 11 16 mph 1015.1mb 83f 81f
10:50 4.5ft 6s 5s 13 16 mph 1015.4mb 83f 81f
9:50 5ft 6s 5s 13 16 mph 1015.9mb 83f 81f
8:50 5.5ft 6s 5s 16 18 mph 1015.7mb 83f 81f
7:50 5.5ft 7s 5s 18 20 mph 1015.3mb 83f 81f
6:50 6ft 6s 5s 16 20 mph 1014.9mb 83f 81f
5:50 6ft 7s 5s 16 20 mph 1014.4mb 83f 81f
4:50 6ft 6s 5s 16 20 mph 1014.1mb 83f 81f
3:50 6ft 7s 5s 20 22 mph 1013.7mb 83f 80f
2:50 7ft 6s 6s 18 22 mph 1013.5mb 83f 80f
1:50 6ft 6s 5s 20 22 mph 1013.5mb 83f 80f
12:50 7ft 7s 6s 20 25 mph 1014.2mb 83f 80f
11:50 7ft 7s 6s 22 25 mph 1015.1mb 83f 81f
10:50 7.5ft 7s 6s 22 27 mph 1016.2mb 83f 81f
9:50 7ft 7s 6s 22 25 mph 1016.5mb 83f 81f
8:50 7ft 6s 6s 22 25 mph 1016.8mb 83f 81f
7:50 7ft 7s 6s 22 27 mph 1015.9mb 83f 80f
6:50 8ft 7s 6s 25 27 mph 1015.2mb 83f 80f
5:50 7ft 9s 6s 22 27 mph 1015.2mb 83f 80f
4:50 7ft 7s 6s 25 29 mph 1014.6mb 83f 79f
3:50 7.5ft 7s 6s 22 29 mph 1014.6mb 83f 79f
2:50 8ft 7s 6s 25 29 mph 1014.7mb 83f 78f
1:50 8ft 7s 6s 25 31 mph 1015mb 83f 79f
12:50 8ft 7s 6s 25 29 mph 1015.7mb 83f 79f
mié 11/19 11:50 8ft 7s 6s 25 27 mph 1016.3mb 83f 79f
10:50 8ft 7s 6s 20 25 mph 1016.9mb 83f 79f
9:50 8ft 10s 6s 22 27 mph 1016.9mb 83f 79f
8:50 8.5ft 7s 6s 22 27 mph 1016.5mb 83f 79f
7:50 8ft 10s 6s 22 25 mph 1016.6mb 83f 79f
6:50 9ft 11s 7s 22 27 mph 1016.3mb 83f 78f
5:50 8ft 10s 6s 22 27 mph 1016.1mb 83f 78f
4:50 9ft 11s 6s 20 25 mph 1016mb 83f 78f
3:50 8.5ft 11s 7s 20 22 mph 1015.9mb 83f 78f
2:50 9ft 11s 7s 22 27 mph 1015.7mb 83f 78f
1:50 9.5ft 11s 7s 22 27 mph 1016.4mb 83f 77f
12:50 9.5ft 11s 7s 22 27 mph 1016.7mb 83f 77f
11:50 9.5ft 11s 6s 25 29 mph 1017.3mb 83f 77f
10:50 10ft 11s 7s 25 27 mph 1018.6mb 83f 77f
9:50 10ft 10s 7s 22 27 mph 1018.8mb 83f 78f
8:50 11ft 11s 7s 22 27 mph 1019.1mb 83f 78f
7:50 10.5ft 8s 7s 25 29 mph 1018.4mb 83f 78f
6:50 12ft 11s 7s 25 29 mph 1017.3mb 83f 77f
5:50 12.5ft 10s 7s 27 31 mph 1016.6mb 83f 77f
4:50 11ft 10s 6s 31 38 mph 1015.3mb 83f 78f
3:50 10.5ft 10s 7s 34 38 mph 1014.3mb 83f 77f
2:50 9.5ft 10s 7s 22 27 mph 1014.8mb 83f 76f
1:50 8ft 10s 6s 22 27 mph 1015.1mb 83f 76f
12:50 7ft 10s 6s 22 27 mph 1015.3mb 83f 79f
mar 11/18 11:50 6ft 8s 6s 20 25 mph 1015.4mb 83f 80f
10:50 5ft 11s 5s 20 25 mph 1015.8mb 83f 79f
9:50 4.5ft 5s 5s 18 20 mph 1016.4mb 83f 79f